sat.trackr.live / text

‹ back to catalog

HUANJING 1B (HJ-1B)

NORAD 33321 · 2008-041B

PAYLOAD ACTIVE UNKNOWN

§ Identity

Operator
Country
PRC
Launch date
2008-09-06
Launch site
TAISC
Launch vehicle
Mass (kg)
RCS (m²)
1.37

Purposes: earth_obs

External: N2YO · Heavens-Above · Gunter

§ Orbital elements

Epoch: 2026-09-14T23:37:56.405568Z

Period
97.07 min
Inclination
97.6611°
Eccentricity
0.0034658
Mean motion
14.83460821 rev/d
Perigee alt
594.2 km
Apogee alt
642.7 km
Semi-major
6,996.6 km
B*
8.6239e-5
RAAN
243.3005°
Arg perigee
248.2884°
Mean anomaly
111.4640°
Rev number
97,172

§ Raw data

HUANJING 1B (HJ-1B)1 33321U 08041B   26257.98468062  .00000663  00000+0  86239-4 0  99962 33321  97.6611 243.3005 0034658 248.2884 111.4640 14.83460821971723

JSON: /api/v1/satellites/33321 · /tle

For live sub-satellite position, see the globe view (requires WebGL).

§ Visibility from observer

Set your observer location to see the next 7 days of passes ≥ 10°. The values pass through the URL so the page stays shareable.

No JS? Fill the form by hand. The geolocation button needs JavaScript.

§ Radio — SatNOGS DB

ModeDescriptionDownlinkUplink
FM Mode X1 8.140 GHz
FM Mode X2 8.260 GHz
BPSK Telemetry 2.210 GHz

3 transmitters · refreshed weekly from db.satnogs.org